Weather History for KPEO - August, 2013

Change the Weather History Date:

Monday, August 19, 2013

  Actual Average (KITH) Record (KITH)
Temperature  
Mean Temperature 71 °F -  
Max Temperature 80 °F 76 °F 91 °F (1936)
Min Temperature 62 °F 54 °F 41 °F (1963)
Cooling Degree Days 6    
Growing Degree Days 21 (Base 50)    
Moisture  
Dew Point 59 °F    
Average Humidity 69    
Maximum Humidity 87    
Minimum Humidity 42    
Precipitation  
Precipitation 0.00 in - - ()
Sea Level Pressure  
Sea Level Pressure 30.09 in    
Wind  
Wind Speed 5 mph (SSW)    
Max Wind Speed 7 mph    
Max Gust Speed -    
Visibility 10 miles    
Events      
Averages and records for this station are not official NWS values.
T = Trace of Precipitation, MM = Missing Value Source: NWS Daily Summary

Daily Weather History Graph

Daily Weather History Graph

Search for Another Location

Airport or City:

Trip Planner

Search our weather history database for the weather conditions in past years. The results will help you decide how hot, cold, wet, or windy it might be!

Date:

Astronomy

Aug. 19, 2013 Rise Set
Actual Time 6:19 AM EDT 8:03 PM EDT
Civil Twilight 5:49 AM EDT 8:33 PM EDT
Nautical Twilight 5:12 AM EDT 9:09 PM EDT
Astronomical Twilight 4:33 AM EDT 9:48 PM EDT
Moon 6:53 PM EDT (8/19) 4:35 AM EDT (8/19)
Length of Visible Light 14h 44m
Length of Day
13h 44m
Waxing Gibbous, 97% of the Moon is Illuminated
Aug 19
Waxing Gibbous
Aug 20
Full
Aug 28
Last Quarter
Sep 5
New
Sep 12
First Quarter

Hourly Weather History & Observations

Time (EDT) Temp. Heat Index Dew Point Humidity Pressure Visibility Wind Dir Wind Speed Gust Speed Precip Events Conditions
12:53 AM 66.0 °F - 59.0 °F 78% 30.14 in 10.0 mi SSW 6.9 mph - N/A   Clear
1:53 AM 66.9 °F - 57.9 °F 73% 30.13 in 10.0 mi SSW 6.9 mph - N/A   Clear
2:53 AM 66.0 °F - 57.9 °F 75% 30.12 in 10.0 mi SSW 6.9 mph - N/A   Clear
3:53 AM 64.9 °F - 59.0 °F 81% 30.11 in 10.0 mi SSW 5.8 mph - N/A   Partly Cloudy
4:53 AM 64.0 °F - 57.9 °F 80% 30.12 in 10.0 mi SSW 6.9 mph - N/A   Clear
5:53 AM 63.0 °F - 57.9 °F 84% 30.12 in 10.0 mi SSW 6.9 mph - N/A   Clear
6:53 AM 62.1 °F - 57.9 °F 86% 30.13 in 9.0 mi South 3.5 mph - N/A   Clear
7:53 AM 63.0 °F - 59.0 °F 87% 30.13 in 10.0 mi SSW 5.8 mph - N/A   Clear
8:53 AM 68.0 °F - 60.1 °F 76% 30.12 in 10.0 mi SSW 5.8 mph - N/A   Clear
9:53 AM 70.0 °F - 61.0 °F 73% 30.12 in 10.0 mi SSW 5.8 mph - N/A   Clear
10:53 AM 72.0 °F - 62.1 °F 71% 30.10 in 10.0 mi South 5.8 mph - N/A   Clear
11:53 AM 75.0 °F - 59.0 °F 57% 30.10 in 10.0 mi South 5.8 mph - N/A   Scattered Clouds
12:53 PM 77.0 °F - 60.1 °F 56% 30.08 in 10.0 mi Variable 4.6 mph - N/A   Scattered Clouds
1:53 PM 79.0 °F - 60.1 °F 52% 30.07 in 10.0 mi Calm Calm - N/A   Mostly Cloudy
2:53 PM 78.1 °F - 57.9 °F 50% 30.06 in 10.0 mi NW 4.6 mph - N/A   Mostly Cloudy
3:53 PM 80.1 °F 80.1 °F 55.0 °F 42% 30.06 in 10.0 mi Variable 6.9 mph - N/A   Partly Cloudy
4:53 PM 79.0 °F - 55.0 °F 44% 30.05 in 10.0 mi Variable 4.6 mph - N/A   Clear
5:53 PM 79.0 °F - 57.0 °F 47% 30.05 in 10.0 mi North 3.5 mph - N/A   Clear
6:53 PM 77.0 °F - 59.0 °F 54% 30.05 in 10.0 mi Calm Calm - N/A   Clear
7:53 PM 72.0 °F - 61.0 °F 68% 30.05 in 10.0 mi Calm Calm - N/A   Clear
8:53 PM 70.0 °F - 61.0 °F 73% 30.05 in 10.0 mi WSW 3.5 mph - N/A   Clear
9:53 PM 66.9 °F - 60.1 °F 79% 30.06 in 10.0 mi Calm Calm - N/A   Clear
10:53 PM 62.1 °F - 57.9 °F 86% 30.07 in 10.0 mi Calm Calm - N/A   Clear
11:53 PM 64.9 °F - 61.0 °F 87% 30.08 in 9.0 mi SSW 4.6 mph - N/A   Clear